Retour au catalogue

BREEZE-M R/B

ActifMEO
NORAD 26738·ROCKET BODY·🇷🇺 Russia

Lancé Apr 7, 2001 depuis Baikonur Cosmodrome

Loading…

Prochains Passages (prochaines 24 heures)

TLE

FraisSource: Space-Track

Époque: Sep 14, 2026, 03:26 UTC

1 26738U 01014C   26257.14360372 -.00000324  00000-0  00000-0 0  9990
2 26738  15.3345  13.5377 0179960 237.2514 133.6209  0.97965842 91038

Suivez BREEZE-M R/B en temps réel avec AllMySat

Download on the App Store